Regional Weather Roundup
Issued by NWS

Home | Current Version | Previous Version | Text Only | Print | Product List | Glossary Off
Versions: 1 2 3 4 5 6 7 8 9 10 11 12 13 14 15 16 17 18 19 20 21 22 23 24 25 26 27 28 29 30 31 32 33 34 35 36 37 38 39 40 41 42 43 44 45 46 47 48 49 50

000
ASUS43 KDMX 280701
RWRIA

WEATHER ROUNDUP FOR IOWA
NATIONAL WEATHER SERVICE DES MOINES IA
200 AM CDT SUN MAY 28 2017

NOTE: "FAIR" INDICATES FEW OR NO CLOUDS BELOW 12,000 FEET WITH NO
SIGNIFICANT WEATHER AND/OR OBSTRUCTIONS TO VISIBILITY.

* - THESE STATIONS ARE NOT NWS STATIONS...THUS NOT UNDER NWS
QUALITY CONTROL.  THEY ALSO DO NOT REPORT WEATHER SUCH
AS PRECIPITATION OR FOG.

IAZ001>003-012>014-020>022-031>034-043>046-280800-
   NORTHWEST IOWA

CITY           SKY/WX    TMP DP  RH WIND       PRES   REMARKS
CARROLL *      PTCLDY    57  55  94 W7        29.89S
CHEROKEE *     PTCLDY    53  52  95 W5        29.89S
DENISON *      PTCLDY    57  52  82 CALM      29.91F
LE MARS *      PTCLDY    54  52  94 S6        29.90F
ORANGE CITY *  PTCLDY    54  52  94 W7        29.89F
SHELDON *      CLEAR     54  52  94 W9        29.87S
SIOUX CITY     LGT RAIN  54  51  90 CALM      29.90F
SPENCER        PTCLDY    55  52  89 W10       29.87F
STORM LAKE *   PTCLDY    54  50  87 W10       29.89F
$$

IAZ055>058-069>071-079>083-090>094-280800-
   SOUTHWEST IOWA

CITY           SKY/WX    TMP DP  RH WIND       PRES   REMARKS
ATLANTIC *     CLOUDY    59  54  82 NW5       29.91S
AUDUBON *      CLOUDY    55  52  88 CALM      29.91F
CLARINDA *     CLOUDY    57  57 100 W3        29.95R
COUNCIL BLFS * CLEAR     57  55  94 N5        29.93R
CRESTON *      CLOUDY    57  57 100 NW6       29.94R
HARLAN  *      PTCLDY    55  55 100 CALM      29.94S
LAMONI         CLEAR     56  55  97 N7        29.89R
RED OAK *      CLOUDY    57  57 100 MISG      29.92S
SHENANDOAH *   CLOUDY    59  57  94 CALM      29.93R
$$

IAZ047>049-059>061-072>074-084-280800-
   CENTRAL IOWA

CITY           SKY/WX    TMP DP  RH WIND       PRES   REMARKS
AMES           CLOUDY    57  54  89 CALM      29.88R
ANKENY *       MOCLDY    54  52  94 CALM      29.90R
BOONE *        CLOUDY    57  57 100 W5        29.88S
CHARITON *     CLEAR     55  54  94 NW7       29.88R
DES MOINES     CLOUDY    57  54  89 W5        29.88R
GRINNELL*      CLEAR     53  51  93 NW6       29.87R
KNOXVILLE *    CLEAR     54  54 100 NW9       29.87R
MARSHALLTOWN   CLEAR     54  53  97 W6        29.86S
NEWTON *       CLEAR     57  54  88 NW7       29.86R
PELLA *        CLEAR     55  53  94 NW6       29.87S
PERRY *        MOCLDY    57  56  97 SW3       29.89S
$$

IAZ004>006-015-016-023>025-035-036-280800-
   NORTH CENTRAL IOWA

CITY           SKY/WX    TMP DP  RH WIND       PRES   REMARKS
ALGONA *       PTCLDY    57  54  88 W9        29.86F
CLARION *      CLOUDY    55  55 100 SW7       29.86F
ESTHERVILLE    PTCLDY    55  53  93 W9        29.85F
FORT DODGE *   CLOUDY    54  52  94 CALM      29.87F
MASON CITY     CLOUDY    59  51  75 W7        29.86F
FOREST CITY *  MOCLDY    57  45  62 CALM      29.85F
WEBSTER CITY * CLOUDY    57  54  88 W7        29.86S
$$

IAZ007>011-017>019-026>030-037>042-050>054-066-280800-
   NORTHEAST IOWA

CITY           SKY/WX    TMP DP  RH WIND       PRES   REMARKS
CEDAR RAPIDS   CLOUDY    60  60 100 NW8       29.81F
CHARLES CITY * CLOUDY    55  55 100 CALM      29.85F
CLINTON *      CLOUDY    61  60  97 NW5       29.80S
DECORAH *      PTCLDY    55  52  88 CALM      29.82F
DUBUQUE        CLOUDY    61  58  90 N7        29.81F
MONTICELLO *   CLOUDY    61  59  94 CALM      29.81F
WATERLOO       CLEAR     53  51  93 W5        29.85R
$$

IAZ064-065-067-068-078-280800-
   EAST CENTRAL IOWA

CITY           SKY/WX    TMP DP  RH WIND       PRES   REMARKS
DAVENPORT      CLOUDY    62  60  93 N5        29.79F
IOWA CITY      CLEAR     59  56  89 NW5       29.82F
MT. PLEASANT * CLOUDY    60  60 100 NW3       29.81R
MUSCATINE *    CLOUDY    61  59  94 NW5       29.80S
QUAD CITIES    CLOUDY    61  59  93 W3        29.78F
$$

IAZ062-063-075>077-085>089-095>099-280800-
   SOUTHEAST IOWA

CITY           SKY/WX    TMP DP  RH WIND       PRES   REMARKS
BURLINGTON     CLOUDY    64  63  96 NW8       29.79S
FAIRFIELD *    CLOUDY    59  59 100 W6        29.82S FOG
FORT MADISON * CLOUDY    63  63 100 NW7       29.80F FOG
KEOKUK *       CLOUDY    63  63 100 NW6       29.79S FOG
OSKALOOSA *    CLOUDY    57  55  93 NW8       29.85R
OTTUMWA        CLOUDY    58  57  97 NW9       29.84R
WASHINGTON *   PTCLDY    57  57 100 NW8       29.82F
$$

ABBREVIATIONS USED IN REMARKS
   TC - TEMPERATURES IN CELSIUS
  WCI - WIND CHILL INDEX
   HX - HEAT INDEX
  VSB - VISIBILITY
$$





USA.gov is the U.S. government's official web portal to all federal, state and local government web resources and services.